Location: Val de Santo Domingo
(40.0124°N, 4.3273°W)
Time: 22:07:28
(UTC+00:00)

Cosmos 1340 Rocket - Pass Details

Date: 18 July 2025
Orbit: 483 x 515 km, 81.2° (Epoch: 17 April)

Event Time Altitude Azimuth Distance (km) Brightness Sun altitude
Rises 21:12:50 0° 344° (NNW) 2,645 7.4 -14.6°
Reaches altitude 10° 21:15:03 10° 339° (NNW) 1,747 6.4 -14.9°
Maximum altitude 21:18:44 48° 265° (W) 678 3.5 -15.4°
Enters shadow 21:21:43 14° 193° (SSW) 1,461 4.7 -15.8°
